SXS8RW LTAI-EDDG

Flight info

Callsign SXS8RW
Flight time N/A
Altitude 36000
Route EKNUD1K/18L EKNUD UQ26 BKZ DCT IBLAX DCT RASUB DCT ELVAB DCT LAMIT DCT NEKUL DCT TEGRI DCT BEGLA DCT STO DCT DITIS DCT RAPET DCT MASEK DCT AMETU T852 EKSAK/N0409F260 T852 KULIX/N0398F240 T842 ADEMI Z850 HMM HMM1A
Aircraft B738/M-SDE2E3FGHIRWXY/LB1

Departure

Time 2026-05-06 19:00
Airport Antalya International Airport (LTAI)

Arrival

Time N/A
Airport Münster Osnabrück Airport (EDDG)
Time Latitude Longitude Altitude Speed Heading
2026-05-06 18:16 36.89948 30.80512 175 ft 0 kts 276°
2026-05-06 18:48 36.89947 30.80524 175 ft 4 kts 278°
2026-05-06 18:48 36.89942 30.80555 175 ft 4 kts 288°
2026-05-06 18:49 36.89931 30.80585 175 ft 4 kts 302°
2026-05-06 18:49 36.89915 30.80609 175 ft 4 kts 324°
2026-05-06 18:49 36.89894 30.80620 175 ft 3 kts
2026-05-06 18:49 36.89889 30.80620 175 ft 0 kts
2026-05-06 18:52 36.89891 30.80620 175 ft 1 kts
2026-05-06 18:53 36.89907 30.80622 175 ft 4 kts
2026-05-06 18:53 36.89945 30.80627 175 ft 7 kts
2026-05-06 18:53 36.89998 30.80635 175 ft 8 kts
2026-05-06 18:53 36.90054 30.80643 175 ft 8 kts
2026-05-06 18:54 36.90108 30.80650 175 ft 8 kts
2026-05-06 18:54 36.90165 30.80656 175 ft 9 kts
2026-05-06 18:54 36.90230 30.80667 175 ft 9 kts
2026-05-06 18:54 36.90293 30.80678 175 ft 9 kts 15°
2026-05-06 18:55 36.90318 30.80741 175 ft 9 kts 90°
2026-05-06 18:55 36.90355 30.80795 175 ft 9 kts 15°
2026-05-06 18:55 36.90416 30.80805 175 ft 10 kts
2026-05-06 18:55 36.90491 30.80815 175 ft 12 kts
2026-05-06 18:56 36.90582 30.80828 175 ft 14 kts
2026-05-06 18:56 36.90676 30.80841 174 ft 13 kts
2026-05-06 18:56 36.90765 30.80853 174 ft 13 kts
2026-05-06 18:56 36.90853 30.80864 174 ft 12 kts
2026-05-06 18:57 36.90938 30.80876 174 ft 12 kts
2026-05-06 18:57 36.91021 30.80888 174 ft 12 kts
2026-05-06 18:57 36.91100 30.80902 174 ft 10 kts 18°
2026-05-06 18:57 36.91139 30.80965 175 ft 9 kts 85°
2026-05-06 18:58 36.91136 30.81001 175 ft 0 kts 96°
2026-05-06 18:58 36.91136 30.81002 175 ft 1 kts 96°
2026-05-06 18:58 36.91135 30.81022 175 ft 4 kts 96°
2026-05-06 18:59 36.91131 30.81065 175 ft 5 kts 96°
2026-05-06 18:59 36.91123 30.81119 175 ft 8 kts 112°
2026-05-06 18:59 36.91074 30.81132 175 ft 8 kts 185°
2026-05-06 18:59 36.90996 30.81121 176 ft 28 kts 186°
2026-05-06 19:00 36.90551 30.81061 175 ft 99 kts 186°
2026-05-06 19:00 36.89659 30.80938 175 ft 157 kts 186°
2026-05-06 19:00 36.88476 30.80758 568 ft 177 kts 187°
2026-05-06 19:00 36.87642 30.80684 1059 ft 179 kts 173°
2026-05-06 19:01 36.86025 30.81040 2072 ft 182 kts 170°
2026-05-06 19:01 36.84676 30.81322 2397 ft 209 kts 171°
2026-05-06 19:01 36.83167 30.81623 2635 ft 232 kts 172°
2026-05-06 19:01 36.81505 30.81947 2914 ft 254 kts 172°
2026-05-06 19:02 36.79715 30.82336 3522 ft 265 kts 164°
2026-05-06 19:02 36.78000 30.83198 4361 ft 267 kts 154°
2026-05-06 19:02 36.76323 30.84246 5182 ft 269 kts 152°
2026-05-06 19:02 36.74763 30.85516 5867 ft 276 kts 133°
2026-05-06 19:03 36.73815 30.87561 6684 ft 274 kts 105°
2026-05-06 19:03 36.73501 30.89818 7429 ft 277 kts 95°
2026-05-06 19:03 36.73318 30.92299 8166 ft 281 kts 94°
2026-05-06 19:03 36.73157 30.94749 8904 ft 285 kts 94°
2026-05-06 19:04 36.73033 30.97226 9620 ft 288 kts 84°
2026-05-06 19:04 36.73685 30.99561 10245 ft 290 kts 52°
2026-05-06 19:04 36.75236 31.01256 10473 ft 309 kts 25°
2026-05-06 19:04 36.77340 31.02076 10671 ft 328 kts
2026-05-06 19:05 36.79677 31.02142 10957 ft 343 kts 355°
2026-05-06 19:05 36.82076 31.01814 11553 ft 349 kts 351°
2026-05-06 19:05 36.84451 31.01378 12289 ft 350 kts 350°
2026-05-06 19:05 36.86870 31.00918 13003 ft 352 kts 350°
2026-05-06 19:06 36.89309 31.00470 13647 ft 356 kts 350°
2026-05-06 19:06 36.91777 31.00037 14280 ft 360 kts 351°
2026-05-06 19:06 36.94272 30.99619 14909 ft 363 kts 351°
2026-05-06 19:06 36.96786 30.99212 15530 ft 366 kts 351°
2026-05-06 19:07 36.99326 30.98809 16148 ft 369 kts 351°
2026-05-06 19:07 37.01025 30.98542 16552 ft 371 kts 351°
2026-05-06 19:07 37.04437 30.98012 17290 ft 375 kts 351°
2026-05-06 19:07 37.07046 30.97607 17859 ft 379 kts 351°
2026-05-06 19:08 37.09672 30.97200 18414 ft 381 kts 351°
2026-05-06 19:08 37.12309 30.96792 18982 ft 384 kts 351°
2026-05-06 19:08 37.14965 30.96380 19524 ft 386 kts 351°
2026-05-06 19:08 37.17642 30.95965 20055 ft 388 kts 350°
2026-05-06 19:09 37.20338 30.95546 20553 ft 391 kts 350°
2026-05-06 19:09 37.23048 30.95126 21025 ft 393 kts 350°
2026-05-06 19:09 37.25779 30.94701 21475 ft 396 kts 350°
2026-05-06 19:09 37.28525 30.94275 21986 ft 398 kts 350°
2026-05-06 19:10 37.31276 30.93847 22448 ft 400 kts 350°
2026-05-06 19:10 37.34050 30.93416 22906 ft 402 kts 350°
2026-05-06 19:10 37.36798 30.92987 23352 ft 404 kts 350°
2026-05-06 19:10 37.39603 30.92550 23785 ft 406 kts 350°
2026-05-06 19:11 37.42419 30.92110 24162 ft 409 kts 350°
2026-05-06 19:11 37.45250 30.91668 24554 ft 411 kts 350°
2026-05-06 19:11 37.48093 30.91224 24935 ft 413 kts 350°
2026-05-06 19:11 37.50951 30.90777 25343 ft 414 kts 350°
2026-05-06 19:12 37.52849 30.90480 25615 ft 415 kts 350°
2026-05-06 19:12 37.55721 30.90030 25980 ft 416 kts 350°
2026-05-06 19:12 37.58611 30.89576 26309 ft 419 kts 350°
2026-05-06 19:12 37.61509 30.89122 26660 ft 420 kts 350°
2026-05-06 19:13 37.64410 30.88667 26977 ft 421 kts 349°
2026-05-06 19:13 37.67330 30.88207 27300 ft 423 kts 349°
2026-05-06 19:13 37.70264 30.87746 27624 ft 425 kts 349°
2026-05-06 19:13 37.73195 30.87284 27957 ft 426 kts 350°
2026-05-06 19:14 37.76146 30.86820 28258 ft 427 kts 350°
2026-05-06 19:14 37.79066 30.86359 28503 ft 429 kts 349°
2026-05-06 19:14 37.82040 30.85890 28780 ft 431 kts 349°
2026-05-06 19:14 37.85012 30.85421 29074 ft 432 kts 349°
2026-05-06 19:15 37.87998 30.84949 29349 ft 432 kts 349°
2026-05-06 19:15 37.90987 30.84477 29719 ft 431 kts 349°
2026-05-06 19:15 37.93956 30.84008 30084 ft 429 kts 349°
2026-05-06 19:15 37.96916 30.83540 30461 ft 427 kts 349°
2026-05-06 19:16 37.99866 30.83073 30757 ft 427 kts 349°
2026-05-06 19:16 38.02815 30.82604 31036 ft 428 kts 350°
2026-05-06 19:16 38.05766 30.82135 31372 ft 426 kts 350°
2026-05-06 19:16 38.08702 30.81669 31697 ft 425 kts 349°
2026-05-06 19:17 38.11639 30.81202 31973 ft 425 kts 349°
2026-05-06 19:17 38.14572 30.80733 32253 ft 424 kts 349°
2026-05-06 19:17 38.17497 30.80255 32514 ft 424 kts 349°
2026-05-06 19:17 38.20422 30.79773 32766 ft 424 kts 349°
2026-05-06 19:18 38.23311 30.79296 33052 ft 423 kts 349°
2026-05-06 19:18 38.26223 30.78814 33347 ft 421 kts 349°
2026-05-06 19:18 38.29121 30.78334 33630 ft 420 kts 349°
2026-05-06 19:18 38.32032 30.77852 33804 ft 422 kts 349°
2026-05-06 19:19 38.34952 30.77368 33980 ft 423 kts 349°
2026-05-06 19:19 38.37879 30.76883 34248 ft 422 kts 349°
2026-05-06 19:19 38.40783 30.76403 34517 ft 420 kts 349°
2026-05-06 19:19 38.43682 30.75922 34695 ft 421 kts 349°
2026-05-06 19:20 38.46604 30.75437 34792 ft 424 kts 349°
2026-05-06 19:20 38.49527 30.74952 34979 ft 424 kts 349°
2026-05-06 19:20 38.52452 30.74466 35233 ft 422 kts 349°
2026-05-06 19:20 38.55325 30.73989 35429 ft 422 kts 349°
2026-05-06 19:21 38.58243 30.73504 35568 ft 423 kts 349°
2026-05-06 19:21 38.61176 30.73015 35714 ft 425 kts 349°
2026-05-06 19:21 38.64106 30.72527 35912 ft 424 kts 349°
2026-05-06 19:21 38.67028 30.72041 36118 ft 423 kts 349°
2026-05-06 19:22 38.69962 30.71551 36111 ft 427 kts 349°
2026-05-06 19:22 38.75851 30.70565 36121 ft 425 kts 349°
2026-05-06 19:23 38.81699 30.69589 36127 ft 422 kts 349°
2026-05-06 19:23 38.87292 30.67720 36125 ft 415 kts 334°
2026-05-06 19:24 38.92431 30.64406 36127 ft 413 kts 331°
2026-05-06 19:24 38.97544 30.61015 36138 ft 413 kts 331°
2026-05-06 19:25 39.02686 30.57635 36138 ft 415 kts 332°
2026-05-06 19:25 39.07807 30.54286 36125 ft 417 kts 332°
2026-05-06 19:26 39.12994 30.50896 36137 ft 418 kts 332°
2026-05-06 19:26 39.18192 30.47493 36124 ft 420 kts 332°
2026-05-06 19:27 39.23414 30.44064 36122 ft 422 kts 332°
2026-05-06 19:27 39.28646 30.40605 36120 ft 422 kts 330°
2026-05-06 19:28 39.33709 30.36875 36123 ft 422 kts 328°
2026-05-06 19:28 39.38756 30.33008 36108 ft 421 kts 328°
2026-05-06 19:29 39.43800 30.29162 36116 ft 420 kts 329°
2026-05-06 19:29 39.48853 30.25335 36118 ft 420 kts 329°
2026-05-06 19:30 39.53903 30.21517 36115 ft 420 kts 329°
2026-05-06 19:30 39.58946 30.17700 36116 ft 419 kts 329°
2026-05-06 19:31 39.63950 30.13908 36120 ft 418 kts 329°
2026-05-06 19:31 39.71488 30.08180 36121 ft 418 kts 329°
2026-05-06 19:32 39.76491 30.04372 36123 ft 417 kts 329°
2026-05-06 19:32 39.81503 30.00551 36118 ft 417 kts 329°
2026-05-06 19:33 39.86499 29.96732 36115 ft 417 kts 329°
2026-05-06 19:33 39.91501 29.92906 36100 ft 417 kts 329°
2026-05-06 19:34 39.96513 29.89067 36105 ft 417 kts 329°
2026-05-06 19:34 40.01518 29.85222 36093 ft 418 kts 329°
2026-05-06 19:35 40.06501 29.81389 36093 ft 418 kts 329°
2026-05-06 19:35 40.11517 29.77523 36087 ft 418 kts 329°
2026-05-06 19:36 40.16536 29.73649 36082 ft 419 kts 329°
2026-05-06 19:36 40.21556 29.69768 36083 ft 419 kts 329°
2026-05-06 19:37 40.26578 29.65878 36072 ft 419 kts 329°
2026-05-06 19:37 40.30751 29.62641 36073 ft 419 kts 329°
2026-05-06 19:38 40.36565 29.58123 36076 ft 418 kts 329°
2026-05-06 19:38 40.41583 29.54216 36072 ft 418 kts 329°
2026-05-06 19:39 40.46584 29.50314 36081 ft 418 kts 329°
2026-05-06 19:39 40.51545 29.46439 36095 ft 417 kts 329°
2026-05-06 19:40 40.56524 29.42542 36107 ft 416 kts 329°
2026-05-06 19:40 40.61250 29.38834 36107 ft 417 kts 329°
2026-05-06 19:41 40.66263 29.34898 36098 ft 417 kts 329°
2026-05-06 19:41 40.71246 29.30979 36100 ft 417 kts 329°
2026-05-06 19:42 40.76222 29.27058 36103 ft 417 kts 329°
2026-05-06 19:42 40.81199 29.23128 36102 ft 417 kts 329°
2026-05-06 19:43 40.86184 29.19185 36102 ft 417 kts 329°
2026-05-06 19:43 40.91150 29.15251 36102 ft 416 kts 329°
2026-05-06 19:44 40.96117 29.11308 36100 ft 416 kts 329°
2026-05-06 19:44 41.01083 29.07360 36103 ft 416 kts 329°
2026-05-06 19:45 41.06048 29.03404 36104 ft 416 kts 329°
2026-05-06 19:45 41.10988 28.99463 36109 ft 416 kts 329°
2026-05-06 19:46 41.15945 28.95500 36100 ft 416 kts 329°
2026-05-06 19:46 41.20905 28.91528 36102 ft 416 kts 329°
2026-05-06 19:47 41.25866 28.87546 36104 ft 416 kts 329°
2026-05-06 19:47 41.30823 28.83563 36101 ft 416 kts 329°
2026-05-06 19:48 41.35773 28.79574 36103 ft 416 kts 329°
2026-05-06 19:48 41.40691 28.75608 36101 ft 416 kts 329°
2026-05-06 19:49 41.45654 28.71600 36103 ft 416 kts 329°
2026-05-06 19:49 41.50601 28.67595 36101 ft 416 kts 329°
2026-05-06 19:50 41.55538 28.63591 36102 ft 416 kts 329°
2026-05-06 19:50 41.60494 28.59566 36103 ft 416 kts 329°
2026-05-06 19:51 41.65436 28.55544 36105 ft 416 kts 329°
2026-05-06 19:51 41.70378 28.51513 36102 ft 416 kts 329°
2026-05-06 19:52 41.75283 28.47504 36103 ft 415 kts 329°
2026-05-06 19:52 41.80220 28.43463 36101 ft 415 kts 329°
2026-05-06 19:53 41.85148 28.39421 36102 ft 415 kts 329°
2026-05-06 19:53 41.90077 28.35372 36102 ft 415 kts 329°
2026-05-06 19:54 41.95000 28.31322 36102 ft 414 kts 329°
2026-05-06 19:54 41.99668 28.26867 36092 ft 416 kts 317°
2026-05-06 19:55 42.03718 28.21313 36102 ft 416 kts 316°
2026-05-06 19:55 42.07740 28.15719 36103 ft 416 kts 316°
2026-05-06 19:56 42.11777 28.10131 36100 ft 416 kts 316°
2026-05-06 19:56 42.15817 28.04557 36103 ft 416 kts 316°
2026-05-06 19:57 42.19188 27.99905 36101 ft 416 kts 316°
2026-05-06 19:57 42.23239 27.94310 36104 ft 416 kts 316°
2026-05-06 19:58 42.27287 27.88707 36101 ft 417 kts 316°
2026-05-06 19:58 42.31337 27.83087 36099 ft 417 kts 316°
2026-05-06 19:59 42.35350 27.77507 36101 ft 417 kts 316°
2026-05-06 19:59 42.39394 27.71874 36100 ft 417 kts 316°
2026-05-06 20:00 42.43426 27.66247 36098 ft 416 kts 316°
2026-05-06 20:00 42.47450 27.60619 36103 ft 416 kts 316°
2026-05-06 20:01 42.51481 27.54971 36103 ft 416 kts 316°
2026-05-06 20:01 42.55513 27.49308 36103 ft 417 kts 316°
2026-05-06 20:02 42.59535 27.43651 36099 ft 417 kts 316°
2026-05-06 20:02 42.63559 27.37979 36100 ft 416 kts 315°
2026-05-06 20:03 42.67571 27.32313 36103 ft 416 kts 315°
2026-05-06 20:03 42.71563 27.26665 36101 ft 416 kts 315°
2026-05-06 20:04 42.75566 27.20990 36102 ft 416 kts 315°
2026-05-06 20:04 42.79573 27.15296 36100 ft 416 kts 315°
2026-05-06 20:05 42.83570 27.09604 36099 ft 416 kts 315°
2026-05-06 20:05 42.87571 27.03895 36095 ft 415 kts 315°
2026-05-06 20:06 42.91562 26.98190 36095 ft 415 kts 315°
2026-05-06 20:06 42.95549 26.92481 36084 ft 416 kts 315°
2026-05-06 20:07 42.99508 26.86799 36088 ft 416 kts 315°
2026-05-06 20:07 43.03492 26.81069 36071 ft 415 kts 315°
2026-05-06 20:08 43.07466 26.75342 36074 ft 414 kts 315°
2026-05-06 20:08 43.11431 26.69619 36067 ft 414 kts 315°
2026-05-06 20:09 43.15387 26.63897 36058 ft 413 kts 315°
2026-05-06 20:09 43.19330 26.58182 36066 ft 412 kts 315°
2026-05-06 20:10 43.23267 26.52460 36050 ft 412 kts 315°
2026-05-06 20:10 43.27171 26.46779 36051 ft 412 kts 315°
2026-05-06 20:11 43.31105 26.41043 36055 ft 412 kts 315°
2026-05-06 20:11 43.35028 26.35310 36031 ft 411 kts 315°
2026-05-06 20:12 43.38941 26.29580 36031 ft 411 kts 315°
2026-05-06 20:12 43.42852 26.23837 36035 ft 410 kts 315°
2026-05-06 20:13 43.46753 26.18104 36036 ft 410 kts 315°
2026-05-06 20:13 43.50626 26.12398 36051 ft 411 kts 315°
2026-05-06 20:14 43.54532 26.06631 36049 ft 411 kts 315°
2026-05-06 20:14 43.58440 26.00848 36032 ft 412 kts 314°
2026-05-06 20:15 43.62348 25.95058 36036 ft 412 kts 314°
2026-05-06 20:15 43.66258 25.89252 36046 ft 412 kts 314°
2026-05-06 20:16 43.70138 25.83477 36034 ft 413 kts 314°
2026-05-06 20:16 43.74034 25.77664 36032 ft 412 kts 314°
2026-05-06 20:17 43.77930 25.71840 36037 ft 412 kts 314°
2026-05-06 20:17 43.81821 25.66014 36033 ft 411 kts 314°
2026-05-06 20:18 43.85704 25.60186 36036 ft 411 kts 314°
2026-05-06 20:18 43.89581 25.54355 36034 ft 411 kts 314°
2026-05-06 20:19 43.93427 25.48558 36051 ft 410 kts 314°
2026-05-06 20:19 43.97292 25.42726 36037 ft 411 kts 314°
2026-05-06 20:20 44.00954 25.36620 36033 ft 411 kts 310°
2026-05-06 20:20 44.04454 25.30334 36036 ft 411 kts 309°
2026-05-06 20:21 44.07975 25.24046 36035 ft 411 kts 310°
2026-05-06 20:21 44.11510 25.17780 36036 ft 411 kts 309°
2026-05-06 20:22 44.15038 25.11524 36031 ft 411 kts 309°
2026-05-06 20:22 44.18547 25.05293 36037 ft 411 kts 309°
2026-05-06 20:23 44.22087 24.99010 36049 ft 412 kts 309°
2026-05-06 20:23 44.25624 24.92716 36036 ft 412 kts 309°
2026-05-06 20:24 44.29150 24.86428 36025 ft 411 kts 309°
2026-05-06 20:24 44.32678 24.80122 36030 ft 411 kts 309°
2026-05-06 20:25 44.36193 24.73818 36025 ft 411 kts 309°
2026-05-06 20:25 44.39691 24.67533 36028 ft 411 kts 309°
2026-05-06 20:26 44.43205 24.61208 36027 ft 411 kts 309°
2026-05-06 20:26 44.46718 24.54874 36028 ft 412 kts 309°
2026-05-06 20:27 44.50227 24.48532 36016 ft 411 kts 309°
2026-05-06 20:27 44.53701 24.42235 36018 ft 411 kts 309°
2026-05-06 20:28 44.57192 24.35896 36019 ft 411 kts 309°
2026-05-06 20:28 44.60684 24.29542 36017 ft 411 kts 308°
2026-05-06 20:29 44.64169 24.23187 36019 ft 410 kts 308°
2026-05-06 20:29 44.67650 24.16822 36019 ft 410 kts 308°
2026-05-06 20:30 44.72866 24.07261 36019 ft 410 kts 308°
2026-05-06 20:31 44.76310 24.00932 36021 ft 410 kts 308°
2026-05-06 20:31 44.79776 23.94549 36015 ft 411 kts 308°
2026-05-06 20:32 44.83243 23.88147 36019 ft 411 kts 308°
2026-05-06 20:32 44.86712 23.81727 36019 ft 411 kts 308°
2026-05-06 20:33 44.90181 23.75294 36013 ft 412 kts 308°
2026-05-06 20:33 44.93648 23.68850 36009 ft 412 kts 308°
2026-05-06 20:34 44.97092 23.62433 36007 ft 413 kts 308°
2026-05-06 20:34 45.00554 23.55968 36011 ft 413 kts 307°
2026-05-06 20:35 45.04018 23.49485 36005 ft 413 kts 307°
2026-05-06 20:35 45.07473 23.43005 35998 ft 413 kts 307°
2026-05-06 20:36 45.10928 23.36511 36004 ft 413 kts 307°
2026-05-06 20:36 45.14383 23.30006 35996 ft 413 kts 307°
2026-05-06 20:37 45.17810 23.23531 35987 ft 413 kts 307°
2026-05-06 20:37 45.21250 23.17016 35982 ft 412 kts 307°
2026-05-06 20:38 45.24683 23.10502 35977 ft 412 kts 307°
2026-05-06 20:38 45.28118 23.03967 35981 ft 412 kts 307°
2026-05-06 20:39 45.31547 22.97429 35973 ft 413 kts 307°
2026-05-06 20:39 45.34956 22.90919 35976 ft 413 kts 307°
2026-05-06 20:40 45.38382 22.84355 35970 ft 413 kts 306°
2026-05-06 20:40 45.41812 22.77771 35985 ft 414 kts 306°
2026-05-06 20:41 45.45239 22.71178 35983 ft 414 kts 306°
2026-05-06 20:41 45.48675 22.64551 35964 ft 415 kts 306°
2026-05-06 20:42 45.52107 22.57918 35960 ft 416 kts 306°
2026-05-06 20:42 45.55515 22.51316 35963 ft 415 kts 306°
2026-05-06 20:43 45.58938 22.44667 35966 ft 415 kts 306°
2026-05-06 20:43 45.62355 22.38006 35959 ft 416 kts 306°
2026-05-06 20:44 45.65196 22.32462 35952 ft 416 kts 305°
2026-05-06 20:44 45.68612 22.25786 35955 ft 415 kts 305°
2026-05-06 20:45 45.72022 22.19101 35943 ft 415 kts 305°
2026-05-06 20:45 45.75420 22.12425 35941 ft 415 kts 305°
2026-05-06 20:46 45.78810 22.05747 35946 ft 414 kts 305°
2026-05-06 20:46 45.82193 21.99068 35943 ft 413 kts 305°
2026-05-06 20:47 45.85566 21.92394 35942 ft 413 kts 305°
2026-05-06 20:47 45.88931 21.85719 35947 ft 412 kts 305°
2026-05-06 20:48 45.92268 21.79084 35941 ft 412 kts 305°
2026-05-06 20:48 45.95623 21.72396 35948 ft 413 kts 304°
2026-05-06 20:49 45.98977 21.65696 35944 ft 413 kts 304°
2026-05-06 20:49 46.02338 21.58964 35953 ft 414 kts 304°
2026-05-06 20:50 46.05692 21.52231 35944 ft 414 kts 304°
2026-05-06 20:50 46.09046 21.45483 35946 ft 415 kts 304°
2026-05-06 20:51 46.12411 21.38694 35940 ft 416 kts 304°
2026-05-06 20:51 46.15767 21.31908 35933 ft 416 kts 304°
2026-05-06 20:52 46.19123 21.25107 35935 ft 416 kts 304°
2026-05-06 20:52 46.22476 21.18295 35937 ft 416 kts 303°
2026-05-06 20:53 46.25826 21.11473 35932 ft 416 kts 303°
2026-05-06 20:53 46.28971 21.04445 35934 ft 415 kts 300°
2026-05-06 20:54 46.31924 20.97318 35937 ft 416 kts 299°
2026-05-06 20:54 46.34895 20.90130 35934 ft 416 kts 299°
2026-05-06 20:55 46.37882 20.82952 35935 ft 416 kts 299°
2026-05-06 20:55 46.40876 20.75771 35935 ft 416 kts 299°
2026-05-06 20:56 46.43868 20.68586 35935 ft 417 kts 299°
2026-05-06 20:56 46.46865 20.61377 35936 ft 417 kts 299°
2026-05-06 20:57 46.49857 20.54157 35926 ft 417 kts 298°
2026-05-06 20:57 46.52843 20.46928 35928 ft 417 kts 298°
2026-05-06 20:58 46.55806 20.39739 35927 ft 417 kts 298°
2026-05-06 20:58 46.58788 20.32487 35926 ft 418 kts 298°
2026-05-06 20:59 46.61767 20.25219 35916 ft 418 kts 298°
2026-05-06 20:59 46.64740 20.17951 35922 ft 418 kts 298°
2026-05-06 21:00 46.67714 20.10658 35926 ft 418 kts 298°
2026-05-06 21:00 46.70658 20.03419 35933 ft 418 kts 298°
2026-05-06 21:01 46.73614 19.96129 35934 ft 418 kts 297°
2026-05-06 21:01 46.76570 19.88821 35938 ft 418 kts 297°
2026-05-06 21:02 46.79523 19.81503 35935 ft 419 kts 297°
2026-05-06 21:02 46.82480 19.74162 35935 ft 419 kts 297°
2026-05-06 21:03 46.85406 19.66869 35935 ft 419 kts 297°
2026-05-06 21:03 46.88344 19.59525 35934 ft 419 kts 297°
2026-05-06 21:04 46.91282 19.52167 35937 ft 418 kts 297°
2026-05-06 21:04 46.94219 19.44790 35941 ft 419 kts 297°
2026-05-06 21:05 46.97129 19.37465 35934 ft 419 kts 297°
2026-05-06 21:05 47.00055 19.30073 35935 ft 419 kts 297°
2026-05-06 21:06 47.02970 19.22688 35932 ft 418 kts 296°
2026-05-06 21:06 47.05879 19.15302 35935 ft 418 kts 296°
2026-05-06 21:07 47.08786 19.07900 35936 ft 418 kts 296°
2026-05-06 21:07 47.11684 19.00498 35935 ft 418 kts 296°
2026-05-06 21:08 47.14583 18.93078 35938 ft 419 kts 296°
2026-05-06 21:08 47.17459 18.85692 35934 ft 419 kts 296°
2026-05-06 21:09 47.20345 18.78266 35935 ft 419 kts 296°
2026-05-06 21:09 47.23235 18.70806 35934 ft 419 kts 296°
2026-05-06 21:10 47.26119 18.63337 35937 ft 420 kts 296°
2026-05-06 21:10 47.29008 18.55840 35930 ft 422 kts 295°
2026-05-06 21:11 47.31913 18.48281 35920 ft 425 kts 295°
2026-05-06 21:11 47.34827 18.40669 35908 ft 427 kts 295°
2026-05-06 21:12 47.37753 18.33009 35915 ft 430 kts 295°
2026-05-06 21:12 47.40692 18.25294 35900 ft 432 kts 295°
2026-05-06 21:13 47.43617 18.17593 35890 ft 432 kts 295°
2026-05-06 21:13 47.46555 18.09838 35890 ft 432 kts 295°
2026-05-06 21:14 47.49487 18.02073 35883 ft 432 kts 295°
2026-05-06 21:14 47.52411 17.94308 35889 ft 430 kts 295°
2026-05-06 21:15 47.55317 17.86572 35881 ft 429 kts 295°
2026-05-06 21:15 47.58208 17.78850 35890 ft 428 kts 295°
2026-05-06 21:16 47.61087 17.71137 35885 ft 427 kts 294°
2026-05-06 21:16 47.63941 17.63466 35886 ft 427 kts 294°
2026-05-06 21:17 47.66798 17.55765 35882 ft 426 kts 294°
2026-05-06 21:17 47.69651 17.48056 35881 ft 426 kts 294°
2026-05-06 21:18 47.72500 17.40335 35873 ft 426 kts 294°
2026-05-06 21:18 47.75341 17.32611 35859 ft 426 kts 294°
2026-05-06 21:19 47.78177 17.24877 35867 ft 426 kts 294°
2026-05-06 21:19 47.80998 17.17168 35853 ft 427 kts 294°
2026-05-06 21:20 47.84020 17.09534 35827 ft 432 kts 303°
2026-05-06 21:20 47.87809 17.02561 35830 ft 434 kts 305°
2026-05-06 21:21 47.91661 16.95610 35832 ft 434 kts 304°
2026-05-06 21:21 47.95480 16.88631 35822 ft 434 kts 304°
2026-05-06 21:22 47.99278 16.81621 35820 ft 435 kts 304°
2026-05-06 21:22 48.03055 16.74620 35819 ft 435 kts 303°
2026-05-06 21:23 48.06848 16.67566 35810 ft 436 kts 303°
2026-05-06 21:23 48.10647 16.60489 35805 ft 436 kts 303°
2026-05-06 21:24 48.14442 16.53396 35806 ft 437 kts 303°
2026-05-06 21:24 48.18244 16.46269 35806 ft 437 kts 303°
2026-05-06 21:25 48.22040 16.39139 35805 ft 438 kts 303°
2026-05-06 21:25 48.25836 16.31989 35805 ft 438 kts 303°
2026-05-06 21:26 48.29609 16.24865 35800 ft 438 kts 303°
2026-05-06 21:26 48.33399 16.17689 35802 ft 438 kts 303°
2026-05-06 21:27 48.37176 16.10516 35797 ft 438 kts 303°
2026-05-06 21:27 48.40960 16.03317 35798 ft 438 kts 303°
2026-05-06 21:28 48.44771 15.96161 35794 ft 438 kts 304°
2026-05-06 21:28 48.48631 15.89045 35797 ft 438 kts 304°
2026-05-06 21:29 48.52453 15.81974 35794 ft 438 kts 303°
2026-05-06 21:29 48.56289 15.74841 35795 ft 437 kts 303°
2026-05-06 21:30 48.60117 15.67692 35800 ft 437 kts 303°
2026-05-06 21:30 48.63945 15.60524 35798 ft 438 kts 303°
2026-05-06 21:31 48.67121 15.54567 35799 ft 438 kts 303°
2026-05-06 21:31 48.70939 15.47381 35794 ft 438 kts 303°
2026-05-06 21:32 48.75366 15.39027 35794 ft 437 kts 303°
2026-05-06 21:32 48.80451 15.29396 35802 ft 437 kts 303°
2026-05-06 21:33 48.84253 15.22174 35804 ft 437 kts 303°
2026-05-06 21:33 48.88018 15.15005 35806 ft 437 kts 302°
2026-05-06 21:34 48.91773 15.07720 35803 ft 436 kts 301°
2026-05-06 21:34 48.95386 15.00300 35810 ft 436 kts 300°
2026-05-06 21:35 48.98973 14.92857 35804 ft 436 kts 300°
2026-05-06 21:35 49.02575 14.85405 35807 ft 437 kts 300°
2026-05-06 21:36 49.06185 14.77941 35806 ft 437 kts 300°
2026-05-06 21:36 49.09796 14.70473 35813 ft 437 kts 300°
2026-05-06 21:37 49.13394 14.63008 35817 ft 436 kts 300°
2026-05-06 21:37 49.16984 14.55537 35824 ft 436 kts 300°
2026-05-06 21:38 49.20550 14.48094 35819 ft 437 kts 300°
2026-05-06 21:38 49.24133 14.40590 35810 ft 438 kts 300°
2026-05-06 21:39 49.27727 14.33050 35809 ft 438 kts 300°
2026-05-06 21:39 49.31316 14.25496 35814 ft 438 kts 300°
2026-05-06 21:40 49.34898 14.17931 35821 ft 439 kts 300°
2026-05-06 21:40 49.38480 14.10343 35827 ft 438 kts 300°
2026-05-06 21:41 49.42053 14.02759 35838 ft 438 kts 300°
2026-05-06 21:41 49.45624 13.95156 35829 ft 438 kts 299°
2026-05-06 21:42 49.49188 13.87547 35835 ft 438 kts 299°
2026-05-06 21:42 49.52749 13.79920 35831 ft 439 kts 299°
2026-05-06 21:43 49.56310 13.72272 35838 ft 440 kts 299°
2026-05-06 21:43 49.59850 13.64649 35835 ft 440 kts 299°
2026-05-06 21:44 49.63410 13.56961 35841 ft 441 kts 299°
2026-05-06 21:44 49.66973 13.49245 35827 ft 441 kts 299°
2026-05-06 21:45 49.70535 13.41505 35836 ft 441 kts 299°
2026-05-06 21:45 49.74083 13.33788 35836 ft 440 kts 299°
2026-05-06 21:46 49.77599 13.26099 35824 ft 441 kts 299°
2026-05-06 21:46 49.81137 13.18340 35831 ft 441 kts 299°
2026-05-06 21:47 49.84676 13.10559 35831 ft 442 kts 298°
2026-05-06 21:47 49.88218 13.02751 35828 ft 443 kts 299°
2026-05-06 21:48 49.91773 12.94890 35822 ft 445 kts 298°
2026-05-06 21:48 49.95294 12.87081 35827 ft 445 kts 298°
2026-05-06 21:49 49.98848 12.79177 35836 ft 446 kts 298°
2026-05-06 21:49 50.02403 12.71245 35836 ft 448 kts 298°
2026-05-06 21:50 50.05962 12.63280 35834 ft 449 kts 298°
2026-05-06 21:50 50.09526 12.55282 35830 ft 449 kts 298°
2026-05-06 21:51 50.13087 12.47267 35832 ft 450 kts 298°
2026-05-06 21:51 50.16649 12.39227 35835 ft 451 kts 298°
2026-05-06 21:52 50.19750 12.30826 35821 ft 440 kts 283°
2026-05-06 21:52 50.21641 12.21869 35827 ft 437 kts 281°
2026-05-06 21:53 50.23465 12.12801 35822 ft 438 kts 281°
2026-05-06 21:53 50.25313 12.03741 35828 ft 437 kts 281°
2026-05-06 21:54 50.27176 11.94704 35831 ft 437 kts 281°
2026-05-06 21:54 50.29047 11.85656 35833 ft 437 kts 281°
2026-05-06 21:55 50.30903 11.76610 35837 ft 437 kts 281°
2026-05-06 21:55 50.32756 11.67533 35835 ft 437 kts 281°
2026-05-06 21:56 50.34599 11.58465 35834 ft 437 kts 281°
2026-05-06 21:56 50.36437 11.49387 35846 ft 438 kts 282°
2026-05-06 21:57 50.38259 11.40346 35839 ft 438 kts 281°
2026-05-06 21:57 50.40088 11.31229 35836 ft 438 kts 282°
2026-05-06 21:58 50.41910 11.22105 35831 ft 438 kts 281°
2026-05-06 21:58 50.43723 11.12979 35834 ft 438 kts 282°
2026-05-06 21:59 50.45531 11.03840 35838 ft 438 kts 281°
2026-05-06 21:59 50.47328 10.94712 35837 ft 438 kts 281°
2026-05-06 22:00 50.49121 10.85559 35834 ft 438 kts 282°
2026-05-06 22:00 50.50891 10.76480 35840 ft 438 kts 282°
2026-05-06 22:01 50.52668 10.67326 35847 ft 438 kts 282°
2026-05-06 22:01 50.54449 10.58098 35843 ft 439 kts 282°
2026-05-06 22:02 50.56204 10.48965 35849 ft 439 kts 282°
2026-05-06 22:02 50.57963 10.39772 35845 ft 439 kts 281°
2026-05-06 22:03 50.59717 10.30557 35840 ft 439 kts 281°
2026-05-06 22:03 50.61465 10.21329 35846 ft 439 kts 281°
2026-05-06 22:04 50.63202 10.12113 35842 ft 440 kts 281°
2026-05-06 22:04 50.64937 10.02861 35845 ft 440 kts 281°
2026-05-06 22:05 50.66656 9.93649 35846 ft 440 kts 282°
2026-05-06 22:05 50.68376 9.84389 35851 ft 440 kts 281°
2026-05-06 22:06 50.69228 9.79791 35678 ft 433 kts 281°
2026-05-06 22:06 50.70070 9.75233 35140 ft 431 kts 281°
2026-05-06 22:06 50.70905 9.70686 34453 ft 434 kts 281°
2026-05-06 22:06 50.71747 9.66096 33695 ft 438 kts 281°
2026-05-06 22:07 50.72597 9.61453 32967 ft 441 kts 281°
2026-05-06 22:07 50.73433 9.56792 32220 ft 443 kts 280°
2026-05-06 22:07 50.74231 9.52057 31528 ft 444 kts 280°
2026-05-06 22:07 50.75004 9.47350 31029 ft 441 kts 279°
2026-05-06 22:08 50.75765 9.42682 30587 ft 437 kts 279°
2026-05-06 22:08 50.76519 9.38062 30122 ft 433 kts 279°
2026-05-06 22:08 50.77263 9.33518 29616 ft 430 kts 279°
2026-05-06 22:08 50.78010 9.28958 29093 ft 428 kts 280°
2026-05-06 22:09 50.78751 9.24437 28579 ft 425 kts 280°
2026-05-06 22:09 50.79491 9.19909 28087 ft 422 kts 280°
2026-05-06 22:09 50.80223 9.15414 27606 ft 418 kts 280°
2026-05-06 22:09 50.80944 9.10986 27123 ft 415 kts 280°
2026-05-06 22:10 50.81657 9.06589 26624 ft 412 kts 280°
2026-05-06 22:10 50.82366 9.02208 26125 ft 409 kts 281°
2026-05-06 22:10 50.83245 8.97921 25638 ft 410 kts 289°
2026-05-06 22:10 50.84523 8.93963 25184 ft 411 kts 299°
2026-05-06 22:11 50.86212 8.90309 24730 ft 410 kts 305°
2026-05-06 22:11 50.87999 8.86811 24284 ft 407 kts 306°
2026-05-06 22:11 50.89809 8.83308 23817 ft 404 kts 306°
2026-05-06 22:11 50.91549 8.79913 23383 ft 400 kts 306°
2026-05-06 22:12 50.93277 8.76503 23096 ft 393 kts 306°
2026-05-06 22:12 50.94969 8.73131 22839 ft 387 kts 306°
2026-05-06 22:12 50.96631 8.69799 22581 ft 383 kts 306°
2026-05-06 22:12 50.98287 8.66471 22349 ft 387 kts 306°
2026-05-06 22:13 50.99970 8.63087 22101 ft 391 kts 306°
2026-05-06 22:13 51.01772 8.59855 21837 ft 390 kts 314°
2026-05-06 22:13 51.03889 8.57154 21590 ft 389 kts 324°
2026-05-06 22:13 51.06147 8.54803 21355 ft 386 kts 325°
2026-05-06 22:14 51.08409 8.52510 21097 ft 384 kts 325°
2026-05-06 22:14 51.10628 8.50260 20846 ft 382 kts 325°
2026-05-06 22:14 51.12853 8.47983 20597 ft 380 kts 325°
2026-05-06 22:14 51.15074 8.45690 20343 ft 378 kts 325°
2026-05-06 22:15 51.17274 8.43404 20095 ft 377 kts 325°
2026-05-06 22:15 51.19462 8.41121 19846 ft 375 kts 325°
2026-05-06 22:15 51.21646 8.38837 19594 ft 374 kts 324°
2026-05-06 22:15 51.23819 8.36561 19349 ft 372 kts 325°
2026-05-06 22:16 51.25975 8.34298 19096 ft 371 kts 325°
2026-05-06 22:16 51.27410 8.32792 18931 ft 370 kts 325°
2026-05-06 22:16 51.29560 8.30535 18680 ft 369 kts 325°
2026-05-06 22:16 51.31695 8.28290 18430 ft 367 kts 325°
2026-05-06 22:17 51.34389 8.25080 18090 ft 363 kts 315°
2026-05-06 22:17 51.36066 8.22096 17842 ft 359 kts 305°
2026-05-06 22:17 51.36985 8.19840 17675 ft 356 kts 299°
2026-05-06 22:17 51.38219 8.16413 17440 ft 355 kts 298°
2026-05-06 22:18 51.39443 8.12994 17178 ft 353 kts 299°
2026-05-06 22:18 51.40662 8.09637 16930 ft 352 kts 299°
2026-05-06 22:18 51.41899 8.06259 16685 ft 351 kts 299°
2026-05-06 22:18 51.43141 8.02896 16432 ft 350 kts 300°
2026-05-06 22:19 51.44384 7.99536 16181 ft 349 kts 300°
2026-05-06 22:19 51.45623 7.96179 15927 ft 348 kts 300°
2026-05-06 22:19 51.46856 7.92854 15681 ft 348 kts 302°
2026-05-06 22:19 51.48437 7.89926 15418 ft 349 kts 319°
2026-05-06 22:20 51.50477 7.87824 15166 ft 349 kts 335°
2026-05-06 22:20 51.52772 7.86552 14935 ft 348 kts 342°
2026-05-06 22:20 51.55101 7.85460 14682 ft 348 kts 343°
2026-05-06 22:20 51.57402 7.84410 14434 ft 347 kts 343°
2026-05-06 22:21 51.59723 7.83340 14183 ft 346 kts 343°
2026-05-06 22:21 51.62033 7.82258 13932 ft 345 kts 343°
2026-05-06 22:21 51.64328 7.81167 13680 ft 343 kts 342°
2026-05-06 22:21 51.66598 7.80079 13431 ft 342 kts 343°
2026-05-06 22:22 51.68892 7.78973 13180 ft 341 kts 343°
2026-05-06 22:22 51.71159 7.77876 12929 ft 340 kts 342°
2026-05-06 22:22 51.73423 7.76778 12679 ft 338 kts 343°
2026-05-06 22:22 51.75672 7.75685 12386 ft 336 kts 343°
2026-05-06 22:23 51.77800 7.74651 12036 ft 333 kts 343°
2026-05-06 22:23 51.80013 7.73574 11645 ft 331 kts 343°
2026-05-06 22:23 51.82176 7.72521 11252 ft 328 kts 343°
2026-05-06 22:23 51.84270 7.71126 10829 ft 326 kts 326°
2026-05-06 22:24 51.85874 7.68578 10467 ft 323 kts 304°
2026-05-06 22:24 51.86811 7.65355 10340 ft 312 kts 289°
2026-05-06 22:24 51.87454 7.62039 10187 ft 304 kts 287°
2026-05-06 22:24 51.88040 7.58815 10045 ft 295 kts 287°
2026-05-06 22:25 51.88610 7.55660 9824 ft 291 kts 287°
2026-05-06 22:25 51.89183 7.52517 9524 ft 290 kts 287°
2026-05-06 22:25 51.89759 7.49393 9225 ft 290 kts 287°
2026-05-06 22:25 51.90336 7.46273 8919 ft 289 kts 288°
2026-05-06 22:26 51.90918 7.43150 8596 ft 289 kts 288°
2026-05-06 22:26 51.91500 7.40028 8275 ft 289 kts 288°
2026-05-06 22:26 51.92080 7.36914 7951 ft 289 kts 288°
2026-05-06 22:26 51.92653 7.33845 7641 ft 287 kts 288°
2026-05-06 22:27 51.93229 7.30756 7321 ft 286 kts 288°
2026-05-06 22:27 51.93801 7.27677 7010 ft 284 kts 288°
2026-05-06 22:27 51.94368 7.24610 6707 ft 283 kts 288°
2026-05-06 22:27 51.94933 7.21563 6410 ft 282 kts 288°
2026-05-06 22:28 51.95607 7.18607 6095 ft 278 kts 303°
2026-05-06 22:28 51.96916 7.16406 5830 ft 270 kts 331°
2026-05-06 22:28 51.98631 7.15422 5557 ft 262 kts 356°
2026-05-06 22:28 52.00411 7.15683 5283 ft 256 kts 18°
2026-05-06 22:29 52.01973 7.17005 5040 ft 251 kts 44°
2026-05-06 22:29 52.02955 7.19238 4896 ft 239 kts 65°
2026-05-06 22:29 52.03510 7.21727 4695 ft 229 kts 70°
2026-05-06 22:29 52.04012 7.24091 4499 ft 220 kts 68°
2026-05-06 22:30 52.04560 7.26347 4317 ft 209 kts 66°
2026-05-06 22:30 52.05079 7.28504 4147 ft 200 kts 68°
2026-05-06 22:30 52.05537 7.30577 3993 ft 191 kts 69°
2026-05-06 22:30 52.05959 7.32583 3848 ft 185 kts 69°
2026-05-06 22:31 52.06370 7.34557 3716 ft 185 kts 69°
2026-05-06 22:31 52.06785 7.36539 3577 ft 183 kts 69°
2026-05-06 22:31 52.07183 7.38456 3446 ft 174 kts 69°
2026-05-06 22:31 52.07560 7.40277 3290 ft 166 kts 68°
2026-05-06 22:32 52.07926 7.42037 3202 ft 162 kts 68°
2026-05-06 22:32 52.08292 7.43783 3066 ft 167 kts 68°
2026-05-06 22:32 52.08669 7.45587 2863 ft 169 kts 69°
2026-05-06 22:32 52.09043 7.47384 2638 ft 166 kts 72°
2026-05-06 22:33 52.09404 7.49114 2417 ft 163 kts 73°
2026-05-06 22:33 52.09759 7.50817 2213 ft 156 kts 74°
2026-05-06 22:33 52.09995 7.51954 2085 ft 160 kts 75°